CW9454 Weather Reports


Display with metric or nautical units.
time (UTC)temp
F
wind
direction
speed
MPH
gust
MPH
rain 1hr
in
rain 24hr
in
rain mn
in
humidity
%
barometer
mb
20260504021037 50 240 0.0 0.0 0.00 0.00 0.00 61 1015.0
20260504020024 50 240 0.0 0.0 0.00 0.00 0.00 61 1015.0
20260504015037 51 240 0.0 0.0 0.00 0.00 0.00 59 1014.8
20260504014022 51 240 0.0 0.0 0.00 0.00 0.00 58 1014.9
20260504013101 52 240 0.0 0.0 0.00 0.00 0.00 57 1014.9
20260504012026 53 240 0.0 0.0 0.00 0.00 0.00 56 1014.8
20260504011020 53 240 0.0 0.0 0.00 0.00 0.00 55 1014.7
20260504010056 54 240 0.0 0.0 0.00 0.00 0.00 53 1014.7
20260504005020 55 240 0.0 0.0 0.00 0.00 0.00 52 1014.6
20260504004014 56 240 0.0 0.0 0.00 0.00 0.00 51 1014.4
20260504003028 57 240 0.0 0.0 0.00 0.00 0.00 50 1014.4
20260504002024 57 240 0.0 0.0 0.00 0.00 0.00 47 1014.3
20260504001018 58 240 0.0 0.0 0.00 0.00 0.00 46 1014.3
20260504000027 59 240 0.0 0.0 0.00 0.00 0.00 43 1014.2
20260503235021 61 240 0.0 4.0 0.00 0.00 0.00 39 1014.1
20260503234035 61 97 0.0 3.0 0.00 0.00 0.00 35 1014.0
20260503233020 62 278 1.0 5.0 0.00 0.00 0.00 34 1013.8
20260503232013 62 267 0.0 5.0 0.00 0.00 0.00 33 1013.9
20260503231028 63 270 2.0 8.0 0.00 0.00 0.00 33 1014.0
20260503230013 63 257 2.0 7.0 0.00 0.00 0.00 33 1013.8
20260503225027 63 267 3.0 8.0 0.00 0.00 0.00 33 1013.9
20260503224021 63 264 2.0 10.0 0.00 0.00 0.00 33 1013.9
20260503223015 63 344 1.0 8.0 0.00 0.00 0.00 32 1013.9
20260503222030 64 230 3.0 15.0 0.00 0.00 0.00 31 1013.9
20260503221015 64 228 2.0 9.0 0.00 0.00 0.00 32 1014.0
20260503220033 64 236 4.0 9.0 0.00 0.00 0.00 31 1014.0
20260503215018 64 262 2.0 11.0 0.00 0.00 0.00 33 1014.0
20260503214031 64 241 4.0 11.0 0.00 0.00 0.00 31 1013.9
20260503213055 65 345 1.0 9.0 0.00 0.00 0.00 34 1013.9
20260503212019 64 333 5.0 13.0 0.00 0.00 0.00 33 1014.0
20260503211028 64 289 1.0 13.0 0.00 0.00 0.00 34 1014.0
20260503210045 64 256 3.0 8.0 0.00 0.00 0.00 34 1014.1
20260503205037 63 225 1.0 9.0 0.00 0.00 0.00 36 1014.0
20260503204029 63 264 2.0 10.0 0.00 0.00 0.00 35 1014.1
20260503203014 63 262 3.0 11.0 0.00 0.00 0.00 35 1014.2
20260503202037 63 272 3.0 14.0 0.00 0.00 0.00 35 1014.3
20260503201021 62 261 2.0 9.0 0.00 0.00 0.00 36 1014.3
20260503200038 63 291 0.0 9.0 0.00 0.00 0.00 37 1014.4
20260503195022 63 267 5.0 11.0 0.00 0.00 0.00 36 1014.7
20260503194036 62 277 3.0 12.0 0.00 0.00 0.00 38 1014.5
20260503193058 62 313 1.0 6.0 0.00 0.00 0.00 36 1014.8
20260503192020 61 254 4.0 18.0 0.00 0.00 0.00 37 1014.9
20260503191014 62 271 1.0 11.0 0.00 0.00 0.00 36 1015.1
20260503190053 63 215 4.0 11.0 0.00 0.00 0.00 38 1015.0
20260503185023 62 279 2.0 13.0 0.00 0.00 0.00 39 1015.1
20260503184016 61 252 3.0 17.0 0.00 0.00 0.00 37 1015.3
20260503183030 61 351 3.0 12.0 0.00 0.00 0.00 37 1015.6
20260503182015 60 248 0.0 14.0 0.00 0.00 0.00 36 1015.5
20260503181055 61 308 3.0 10.0 0.00 0.00 0.00 39 1015.8
20260503180022 60 300 5.0 12.0 0.00 0.00 0.00 38 1015.6
20260503175031 60 267 3.0 14.0 0.00 0.00 0.00 39 1015.8
20260503174017 60 344 2.0 12.0 0.00 0.00 0.00 38 1016.2
20260503173040 60 311 2.0 9.0 0.00 0.00 0.00 35 1016.1
20260503172025 60 236 0.0 12.0 0.00 0.00 0.00 40 1016.0
20260503171021 59 330 3.0 11.0 0.00 0.00 0.00 41 1016.0
20260503131027 47 286 2.0 8.0 0.00 0.00 0.00 57 1016.9
20260503081015 44 262 4.0 9.0 0.00 0.00 0.00 71 1013.9
20260503072040 45 235 3.0 9.0 0.00 0.00 0.00 69 1013.6
20260503071025 45 246 3.0 7.0 0.00 0.00 0.00 69 1013.5
20260503055027 48 257 0.0 6.0 0.00 0.00 0.00 64 1013.4
20260503054013 48 281 2.0 4.0 0.00 0.00 0.00 63 1013.5
20260503053027 49 302 0.0 2.0 0.00 0.00 0.00 61 1013.4
20260503052021 49 307 0.0 5.0 0.00 0.00 0.00 60 1013.4
20260503051015 49 248 0.0 7.0 0.00 0.00 0.00 59 1013.4
20260503050042 50 288 0.0 5.0 0.00 0.00 0.00 58 1013.4
20260503045038 50 321 0.0 6.0 0.00 0.00 0.00 58 1013.5
20260503044022 50 263 1.0 6.0 0.00 0.00 0.00 57 1013.5
20260503043014 51 329 0.0 12.0 0.00 0.00 0.00 56 1013.5
20260503042028 51 308 1.0 5.0 0.00 0.00 0.00 57 1013.5
20260503041021 51 333 0.0 8.0 0.00 0.00 0.00 57 1013.6
20260503040029 52 300 1.0 9.0 0.00 0.00 0.00 57 1013.5
20260503035021 52 345 0.0 6.0 0.00 0.00 0.00 56 1013.5
20260503034036 52 310 1.0 11.0 0.00 0.00 0.00 55 1013.4
20260503033031 52 263 0.0 10.0 0.00 0.00 0.00 56 1013.3
20260503032044 53 312 1.0 8.0 0.00 0.00 0.00 56 1013.3
20260503031038 53 21 0.0 9.0 0.00 0.00 0.00 56 1013.4
20260503030025 53 5 2.0 8.0 0.00 0.00 0.00 54 1013.4
20260503025040 54 5 1.0 9.0 0.00 0.00 0.00 53 1013.5
20260503024025 54 306 0.0 9.0 0.00 0.00 0.00 53 1013.5
20260503023019 54 307 1.0 13.0 0.00 0.00 0.00 51 1013.4
20260503022014 55 291 3.0 14.0 0.00 0.00 0.00 51 1013.2